Location: ?????
(37.7324°N, 23.9257°E)
Time: 22:28:25
(UTC+00:00)

Meteor 1-4 Rocket - Pass Details

Date: 29 November 2020
Orbit: 449 x 500 km, 81.2° (Epoch: 18 January)

Event Time Altitude Azimuth Distance (km) Brightness Sun altitude
Exits shadow 03:14:17 48° 101° (E) 595 3.3 -24.2°
Drops below altitude 10° 03:17:18 10° 156° (SSE) 1,575 5.5 -23.6°
Sets 03:19:24 0° 162° (SSE) 2,447 6.5 -23.2°
